Location: ???
(60.6398°N, 46.9067°E)
Time: 16:54:28
(UTC+00:00)

Cosmos 2279 Rocket - Pass Details

Date: 08 December 2019
Orbit: 964 x 978 km, 82.9° (Epoch: 21 January)

Event Time Altitude Azimuth Distance (km) Brightness Sun altitude
Rises 12:48:24 0° 345° (NNW) 3,686 6.8 -6.8°
Reaches altitude 10° 12:51:00 10° 349° (N) 2,737 6.1 -7.0°
Maximum altitude 12:57:10 56° 68° (ENE) 1,160 4.1 -7.6°
Drops below altitude 10° 13:03:18 10° 146° (SE) 2,729 6.3 -8.3°
Sets 13:05:53 0° 151° (SSE) 3,674 7.1 -8.5°
